Flag for U.S.A. Weather past 2 weeks in Abilene, Texas, U.S.A.

Now
73 °F

Clear.


Feels Like: 72 °F
Forecast: 71 / 82 °F
Wind: 5 mph from South

Location: Abilene Regional Airport

Current Time: Sep 18, 2014 at 3:00:10 AM

Latest Report: Sep 18, 2014 at 1:52 AM


Visibility: 10 mi

Pressure: 29.84 "Hg

Humidity: 84%

Dew point: 68 °F

Location of AbileneLocation

Historic Weather in Abilene — Graph

°F

Abilene temperature yesterday

Maximum temperature yesterday: 89 °F (at 12:52 PM)
Minimum temperature yesterday: 73 °F (at 6:52 AM)
Average temperature yesterday: 79 °F

Past Weeks' High & Low Weather Summary

 TemperatureHumidityPressure
High102 °F (Sep 10, 3:52 PM)97% (Sep 7, 5:52 AM)30.32 "Hg (Sep 7, 5:52 AM)
Low52 °F (Sep 13, 5:52 AM)19% (Sep 10, 6:52 PM)29.67 "Hg (Sep 10, 5:52 PM)
Average77 °F66%30.00 "Hg
* Reported Sep 3 1:52 AM — Sep 18 1:52 AM, Abilene, Weather by CustomWeather, © 2014

Note: Actual official high and low records may vary slightly from our data, if they occured in-between our weather recording intervals... More about our weather records

Advertising

Abilene weather history for previous 24 hours

 ConditionsComfort  
Time TempWeatherWind HumidityBarometerVisibility
1:52 AM
Sep 18
73 °FClear.5 mph84%29.84 "Hg10 mi
12:52 AM73 °FClear.8 mph88%29.85 "Hg10 mi
11:52 PM
Sep 17
73 °FClear.6 mph88%29.87 "Hg10 mi
10:52 PM74 °FClear.5 mph88%29.89 "Hg10 mi
9:52 PM74 °FLight rain. Overcast.8 mph88%29.90 "Hg10 mi
8:52 PM75 °FPassing clouds.7 mph82%29.88 "Hg10 mi
7:52 PM77 °FSunny.8 mph79%29.84 "Hg10 mi
6:52 PM79 °FLight rain. Partly sunny.5 mph72%29.86 "Hg10 mi
5:52 PM79 °FScattered clouds.12 mph69%29.86 "Hg10 mi
4:52 PM82 °FPassing clouds.9 mph63%29.86 "Hg10 mi
3:52 PM78 °FLight rain. Mostly cloudy.No wind82%29.87 "Hg9 mi
3:03 PM87 °FBroken clouds.12 mph51%29.93 "Hg10 mi
2:52 PM88 °FBroken clouds.13 mph48%29.85 "Hg10 mi
1:52 PM89 °FPassing clouds.3 mph45%29.87 "Hg10 mi
12:52 PM89 °FSunny.5 mph45%29.90 "Hg10 mi
11:52 AM88 °FSunny.10 mph50%29.92 "Hg10 mi
10:52 AM85 °FSunny.6 mph59%29.93 "Hg10 mi
9:52 AM80 °FSunny.7 mph69%29.94 "Hg10 mi
8:52 AM76 °FSunny.3 mph82%29.95 "Hg10 mi
7:52 AM74 °FLight rain. Passing clouds.No wind85%29.94 "Hg10 mi
6:52 AM73 °FClear.3 mph88%29.93 "Hg10 mi
5:52 AM74 °FClear.3 mph85%29.93 "Hg10 mi
4:52 AM75 °FClear.3 mph82%29.93 "Hg10 mi
3:52 AM75 °FLight rain. Passing clouds.3 mph82%29.93 "Hg10 mi
Weather by CustomWeather, © 2014

See weather overviewHow to use our weather pages